Regional Weather Roundup
Issued by NWS

Home | Current Version | Previous Version | Graphics & Text | Print | Product List | Glossary On
Versions: 1 2 3 4 5 6 7 8 9 10 11 12 13 14 15 16 17 18 19 20 21 22 23 24 25 26 27 28
000
ASUS45 KTFX 291510
RWRMT
MONTANA REGIONAL WEATHER ROUNDUP
NATIONAL WEATHER SERVICE GREAT FALLS MT
900 AM MDT MON AUG 29 2016

NOTE: "FAIR" INDICATES FEW OR NO CLOUDS BELOW 12000 FEET WITH NO
SIGNIFICANT WEATHER AND/OR OBSTRUCTIONS TO VISIBILITY.

MTZ001>007-043-291600-
WEST OF THE DIVIDE

CITY           SKY/WX    TMP DP  RH WIND       PRES   REMARKS
KALISPELL      SUNNY     60  45  57 N9        30.20S
MISSOULA       SUNNY     53  40  61 W3        30.24S
BUTTE          SUNNY     51  34  52 CALM      30.36R HAZE
MULLAN PASS    MOSUNNY   58  34  40 S10       30.29R
DEER LODGE       N/A     55  37  50 CALM      30.34R
EUREKA           N/A     59  39  47 CALM      30.20F
HAMILTON         N/A     61  39  44 S5        30.24S
LIBBY            N/A     54  37  54 SE3       30.20F
PLAINS           N/A     52  41  66 CALM      30.19R
RONAN            N/A     59  46  61 CALM      30.23R
$$

MTZ008-052>055-291600-
SOUTHWEST MONTANA

CITY           SKY/WX    TMP DP  RH WIND       PRES   REMARKS
BOZEMAN        SUNNY     60  43  53 CALM      30.32S
DILLON         SUNNY     57  36  45 SW7       30.34R
W YELLOWSTONE  PTSUNNY   46  32  57 CALM      30.46R HAZE
ENNIS          MOSUNNY   57  34  41 CALM      30.40R
THREE FORKS      N/A     56  26  31 CALM      30.27S
TWIN BRIDGES     N/A     55  34  45 SE5       30.28S
$$

MTZ009-010-012-014-046-048-049-054-291600-
EAST SLOPES AND CENTRAL MONTANA

CITY           SKY/WX    TMP DP  RH WIND       PRES   REMARKS
CUT BANK       SUNNY     53  43  68 SE5       30.25S
GREAT FALLS    SUNNY     58  44  60 NE3       30.26R
MALMSTROM AFB  SUNNY     54  46  73 NE6       30.26R
HELENA         SUNNY     60  40  47 N3        30.29R
CHOTEAU          N/A     55  45  67 E5        30.27S
$$

MTZ011-013-016-021-045-047-050-051-291600-
NORTH CENTRAL MONTANA

CITY           SKY/WX    TMP DP  RH WIND       PRES   REMARKS
HAVRE          SUNNY     60  46  59 E16       30.24R
LEWISTOWN      SUNNY     64  49  57 E10       30.28F
N BAR RANCH      N/A     61  46  59 SE6       30.35S
CHINOOK          N/A     55  45  67 E15       30.26S
$$

MTZ017>020-022>027-061-062-291600-
NORTHEAST MONTANA

CITY           SKY/WX    TMP DP  RH WIND       PRES   REMARKS
GLASGOW        SUNNY     57  44  62 SE6       30.31S
JORDAN           N/A     62  46  55 E10       30.30R
SIDNEY         SUNNY     59  46  62 NE8       30.31S
WOLF POINT     SUNNY     58  45  62 E9        30.33S
PLENTYWOOD       N/A     54  45  71 SW5       30.33
POPLAR           N/A     57  45  62 E8        30.33S
SCOBEY           N/A     52  43  71 CALM      30.30R
$$

MTZ028>42-056>058-291600-
SOUTHCENTRAL AND SOUTHEAST MONTANA

CITY           SKY/WX    TMP DP  RH WIND       PRES   REMARKS
BAKER          SUNNY     65  49  56 E13       30.30R
BILLINGS       MOSUNNY   64  48  56 N7        30.31R
LIVINGSTON     SUNNY     57  42  57 NW6       30.34S
MILES CITY     SUNNY     66  48  52 NE12      30.29R
FORSYTH          N/A     64  48  55 E12       30.27S
LAUREL           N/A     64  48  56 CALM      30.28R
ROUNDUP          N/A     62  47  58 N5        30.20S
$$

REGIONAL REPORTS...DAKOTAS

CITY           SKY/WX    TMP DP  RH WIND       PRES   REMARKS
WILLISTON      SUNNY     59  45  59 NE9       30.31S
MINOT          SUNNY     61  48  62 NW9       30.27R
DICKINSON      SUNNY     63  46  54 NE14      30.27R
CROSBY           N/A     55  46  71 NE7       30.33S
WATFORD CITY     N/A     59  46  63 NE8       30.31R
BISMARCK       CLOUDY    67  51  56 N14       30.23R
GRAND FORKS    CLOUDY    70  64  81 N14       30.13R
FARGO          CLOUDY    76  68  76 SW8       30.13R
BUFFALO SD       N/A     64  53  67 NE20      30.21R
RAPID CITY     SUNNY     67  52  58 N14       30.26R
$$

REGIONAL REPORTS...WYOMING/IDAHO/WASHINGTON

CITY           SKY/WX    TMP DP  RH WIND       PRES   REMARKS
GILLETTE       CLOUDY    65  48  54 N7        30.29R
SHERIDAN       SUNNY     67  45  45 CALM      30.31S
BUFFALO WY     SUNNY     68  40  35 N8        30.36R
CODY           SUNNY     59  43  55 CALM      30.36R
YELLOWSTONE LA   N/A     51  43  74 CALM      30.53R
IDAHO FALLS    MOSUNNY   56  42  59 N6        30.30R
SALMON         SUNNY     54  43  66 CALM      30.29S
BOISE          MOSUNNY   69  45  41 N6        30.10R SMOKE
SPOKANE        PTSUNNY   61  42  49 NE9       30.09S
$$

REGIONAL REPORTS...ALBERTA

CITY           SKY/WX    TMP DP  RH WIND       PRES   REMARKS
EDMONTON       CLOUDY    48  43  81 E6        30.22R
CALGARY        PTSUNNY   48  43  81 S8        30.19S
LETHBRIDGE     PTSUNNY   55  45  67 SW8       30.21F
MEDICINE HAT   PTSUNNY   54  46  76 VRB3      30.23F
WATERTON GATE    N/A     57  45  62 SE2         N/A
MILK RIVER       N/A     59  46  63 S16         N/A
$$

REGIONAL REPORTS...SASKATCHEWAN

CITY           SKY/WX    TMP DP  RH WIND       PRES   REMARKS
SWIFT CURRENT  SUNNY     52  45  76 SE7       30.29S
REGINA         MOSUNNY   50  43  76 NW7       30.31R
SASKATOON      MOSUNNY   50  43  76 W5        30.31R
CYPRESS HILLS    N/A     48  41  76 SE9         N/A
VAL MARIE        N/A     54  43  66 SE7         N/A
ROCKGLEN         N/A     50  45  81 S5          N/A
ASSINIBOIA       N/A     50  43  76 SE5         N/A
$$




USA.gov is the U.S. government's official web portal to all federal, state and local government web resources and services.